Location: Ambatotampy
(18.8181°S, 47.6186°E)
Time: 23:49:14
(UTC+00:00)

Cosmos 1570 Rocket - Pass Details

Date: 21 January 2021
Orbit: 762 x 789 km, 74.1° (Epoch: 24 February)

Event Time Altitude Azimuth Distance (km) Brightness Sun altitude
Rises 01:15:45 0° 195° (SSW) 3,260 7.4 -16.5°
Reaches altitude 10° 01:18:09 10° 195° (SSW) 2,324 6.7 -16.0°
Maximum altitude 01:23:26 85° 282° (WNW) 775 3.9 -14.9°
Drops below altitude 10° 01:28:38 10° 11° (N) 2,289 6.3 -13.8°
Sets 01:30:59 0° 12° (NNE) 3,207 7.1 -13.3°
